Tracking 25734 objects as of 26-May-2022
HD Live streaming from Space Station
objects crossing your sky now

SL-12 DEB

Track SL-12 DEB now!
10-day predictions


NORAD ID: 29308
Int'l Code: 1989-039P
Perigee: 520.6 km
Apogee: 10,912.0 km
Inclination: 64.9 °
Period: 220.4 minutes
Semi major axis: 12087 km
RCS: 0.0696 m2 (small)
Launch date: May 31, 1989
Source: Commonwealth of Independent States (former USSR) (CIS)
Launch site: TYURATAM MISSILE AND SPACE COMPLEX (TTMTR)

Note: This is SATELLITE DEBRIS
aabbcc
Your satellite tracking list
Your tracking list is empty




NASA's NSSDC Master Catalog

Two Line Element Set (TLE):
1 29308U 89039P   22146.14749967  .00077025  00000-0  98057-1 0  9994
2 29308  64.9067  45.2727 4298495  64.4959 333.5424  6.53297215319660
Source of the keplerian elements: AFSPC